Regional Weather Roundup
Issued by NWS Cleveland, OH

Home | Current Version | Previous Version | Graphics & Text | Print | Product List | Glossary On
Versions: 1 2 3 4 5 6 7 8 9 10 11 12 13 14 15 16 17 18 19 20 21 22 23 24 25 26 27 28 29 30 31 32 33 34 35 36 37 38 39 40 41 42 43 44 45 46 47 48 49 50
000
ASUS41 KCLE 221900
RWRCLE
OHIO REGIONAL WEATHER ROUNDUP
NATIONAL WEATHER SERVICE WILMINGTON, OH
300 PM EDT FRI AUG 22 2014

NOTE: "FAIR" INDICATES FEW OR NO CLOUDS BELOW 12,000 FEET WITH NO
SIGNIFICANT WEATHER AND/OR OBSTRUCTIONS TO VISIBILITY.

OHZ001>008-015>018-024>027-034-035-043-044-222000-
   NORTHWEST OHIO

CITY           SKY/WX    TMP DP  RH WIND       PRES   REMARKS
DEFIANCE       PTSUNNY   84  72  67 N6        29.96F
FINDLAY        CLOUDY    83  71  67 W7        29.95S
TOLEDO EXPRESS CLOUDY    80  70  71 CALM      29.96R
TOLEDO METCALF CLOUDY    80  71  74 NE7       29.97R
LIMA           PTSUNNY   81  72  74 NW9       29.97F
$$

OHZ009>014-019>023-028>033-038-089-222000-
   NORTHEAST OHIO

CITY           SKY/WX    TMP DP  RH WIND       PRES   REMARKS
CLE-HOPKINS    MOSUNNY   80  72  76 N12       29.98F
CLE-LAKEFRONT  MOSUNNY   78  72  81 N8        29.96F
CUY CO. ARPT   PTSUNNY   81  73  78 N7        29.98F
LORAIN-ELYRIA  PTSUNNY   85  73  67 N8        29.97S HX  91
ASHTABULA      PTSUNNY   78  71  79 N8        29.98F
AKRON-CANTON   PTSUNNY   80  68  66 NW3       29.97F
WOOSTER        NOT AVBL
MANSFIELD      PTSUNNY   82  70  66 N5        29.99S
YOUNGSTOWN     PTSUNNY   80  68  66 CALM      29.98F
$$

OHZ042-051>053-060>062-070>072-077>081-222000-
  SOUTHWEST OHIO

CITY           SKY/WX    TMP DP  RH WIND       PRES   REMARKS
CINC-COVINGTON CLOUDY    85  76  74 SW9       29.99F HX  94
CINC-LUNKEN    CLOUDY    84  75  74 SW9       29.97F HX  92
HAMILTON       PTSUNNY   85  77  77 W3        29.99S HX  95
DAYTON         NOT AVBL
WRIGHT-PAT AFB NOT AVBL
DAYTON GENERAL PTSUNNY   82  73  74 SW8       29.98F
WILMINGTON     CLOUDY    82  74  76 SW10      29.99S
$$

OHZ036-037-039>041-045>050-054>059-063>069-073>076-082>088-222000-
  CENTRAL AND SOUTHEAST OHIO

CITY           SKY/WX    TMP DP  RH WIND       PRES   REMARKS
COLUMBUS       CLOUDY    82  70  66 SW6       29.97F
OSU AIRPORT    PTSUNNY   82  71  69 SW8       29.98R
BOLTON FIELD   CLOUDY    79  73  83 S6        29.99S
RICKENBACK AFB NOT AVBL
NEWARK         CLOUDY    81  71  71 SW6       29.97F
MARION         PTSUNNY   85  70  60 W5        29.97S
LANCASTER      CLOUDY    81  71  71 SW6       29.98S
ZANESVILLE     MOSUNNY   81  70  69 S5        29.97F
NEW PHILLY     MOSUNNY   81  73  76 SE5       29.97F
$$


USA.gov is the U.S. government's official web portal to all federal, state and local government web resources and services.